[[{"header":{"parameterUnit":"m.s-1","parameterCategory":1,"la1":30.2991,"la2":30.254,"lo1":-89.0895,"lo2":-89.0444,"dy":0.0017,"dx":0.0017,"nx":28,"ny":28,"refTime":"2024-02-23T03:00:00:Z","depth":0,"parameterNumber":2,"parameterNumberName":"U-component_of_WINDS"},"data":[0,0,0,0,0,0,0,0,0,0,0,0,0,0,0,0,0,0,0,0,0,0,0,0,0,0,0,0,0,0,0,0,0,0,0,0,0,0,0,0,0,0,0,0,0,0,0,0,0,0,0,0,0,0,0,0,0,0,2.7312,2.7312,0,2.7343,2.7344,2.7344,2.7305,2.7303,2.7302,2.73,2.7335,2.7337,2.7339,0,0,0,0,0,0,0,0,0,0,0,0,0,2.7221,2.7223,2.7312,2.7312,2.7313,2.7343,2.7344,2.7344,2.7305,2.7303,2.7301,2.73,2.7334,2.7337,2.734,0,0,0,0,0,0,0,0,0,0,0,0,0,2.7257,2.7224,2.7312,2.7297,2.7296,2.7343,2.7344,2.7344,2.7305,2.7303,2.7301,2.7299,2.7333,2.7337,2.734,2.7404,0,0,2.735,2.7352,0,0,0,0,0,0,0,0,2.7255,2.7261,2.7299,2.7298,2.7297,2.7318,2.7324,2.7365,2.7306,2.7302,2.73,2.7298,2.7331,2.7335,2.7345,2.7406,2.7408,2.7351,2.7353,2.7354,2.7355,0,0,0,0,0,0,0,2.7253,2.7259,2.7324,2.7299,2.7298,2.7289,2.7292,2.7332,2.7328,2.7302,2.7299,2.7303,2.733,2.7342,2.7346,2.7408,2.7351,2.7354,2.7356,2.7357,2.7525,2.7527,0,0,0,0,0,0,2.7252,2.7257,2.7323,2.7325,2.727,2.7293,2.7296,2.7313,2.7328,2.7328,2.7305,2.7301,2.7337,2.7342,2.7347,2.7424,2.7354,2.7357,2.7359,2.7523,2.7525,2.7528,0,0,0,0,0,0,2.725,2.7258,2.7322,2.7291,2.7298,2.7297,2.7317,2.7315,2.7327,2.733,2.733,2.7318,2.7336,2.7342,2.7391,2.7425,2.7359,2.7362,2.752,2.7523,2.7527,2.7579,0,0,0,0,0,0,2.7248,2.7258,2.7281,2.7291,2.73,2.7365,2.7319,2.7317,2.7333,2.7328,2.7342,2.7342,2.7335,2.7386,2.7394,2.7428,2.7365,2.7517,2.7521,2.7526,2.7574,2.7584,2.7592,0,0,0,0,0,2.7244,2.7295,2.7283,2.7291,2.7329,2.7367,2.7372,2.7361,2.7335,2.736,2.7362,2.7342,2.742,2.7391,2.74,2.7436,2.7514,2.752,2.7525,2.757,2.7582,2.7592,0,0,0,0,0,0,2.729,2.7296,2.7282,2.7338,2.7352,2.736,2.739,2.7374,2.7396,2.7391,2.7378,2.7382,2.7434,2.744,2.7407,2.75,2.7463,2.747,2.7494,2.7505,2.7514,2.7512,2.7367,0,0,0,0,0,2.7306,2.7335,2.7339,2.7388,2.7395,2.7392,2.7408,2.7398,2.7413,2.7419,2.7425,2.744,2.7468,2.7487,2.7513,2.7575,2.7578,2.7604,2.7613,2.7621,2.7628,2.7662,2.7674,2.7546,2.7546,2.7546,0,0,2.734,2.7347,2.7366,2.7397,2.7407,2.7438,2.7397,2.7431,2.7455,2.7424,2.747,2.7475,2.7492,2.7548,2.7573,2.7554,2.7664,2.7628,2.7634,2.7636,2.7669,2.7681,2.7692,2.755,2.7549,2.7548,0,0,2.7419,2.7426,2.7468,2.7479,2.7494,2.7491,2.7502,2.7512,2.7514,2.756,2.7538,2.7566,2.7615,2.7628,2.7641,2.7725,2.7708,2.7734,2.7782,2.7815,2.7826,2.7834,2.7866,2.7877,2.7741,2.7741,2.7741,0,2.7459,2.7504,2.7492,2.7528,2.7543,2.7516,2.7559,2.757,2.7594,2.7605,2.7584,2.7645,2.7654,2.7713,2.7734,2.7745,2.7757,2.7733,2.7825,2.7834,2.7842,2.7871,2.7883,2.7744,2.7744,2.7744,2.7743,0,2.7554,2.7586,2.7618,2.7641,2.7659,2.7699,2.7693,2.7713,2.7703,2.7703,2.7751,2.7761,2.7789,2.7802,2.7793,2.7861,2.7849,2.7827,2.7789,2.7857,2.7885,2.7896,2.7749,2.7748,2.7747,2.7746,0,0,2.7662,2.7677,2.769,2.77,2.7715,2.774,2.7779,2.7806,2.7824,2.7841,2.7874,2.7916,2.7896,2.7911,2.7903,2.7932,2.8,2.7907,2.7907,2.7924,2.8077,2.8094,2.8107,2.7988,2.799,2.7992,2.8076,0,2.7741,2.7807,2.7797,2.7861,2.7891,2.7867,2.7901,2.7915,2.7916,2.7943,2.7944,2.7975,2.7945,2.7954,2.7982,2.7986,2.803,2.7979,2.802,2.8021,2.8017,2.8121,2.8139,2.8217,2.8086,2.8088,2.8089,0,2.7842,2.7862,2.793,2.7941,2.7953,2.7984,2.8008,2.8034,2.8049,2.8048,2.8065,2.8052,2.8092,2.8054,2.811,2.8075,2.8092,2.8096,2.8099,2.8102,2.806,2.8129,2.8242,2.8254,2.8106,2.8105,2.8103,0,2.7914,2.7959,2.8005,2.8015,2.8029,2.8052,2.8059,2.8072,2.809,2.8111,2.8123,2.8149,2.8164,2.8185,2.818,2.8152,2.8237,2.8198,2.8239,2.8239,2.8258,2.8257,2.8376,2.8268,2.8267,2.8267,2.8267,0,2.8004,2.8046,2.8038,2.8067,2.8114,2.8103,2.815,2.8154,2.8167,2.8197,2.8177,2.8206,2.8197,2.8226,2.8222,2.8269,2.8276,2.8277,2.8276,2.8279,2.8279,2.829,2.8285,2.827,2.827,2.8269,2.8268,0,2.8093,2.8089,2.8138,2.8148,2.8152,2.8186,2.8195,2.8222,2.8222,2.826,2.8269,2.8269,2.8302,2.8299,2.8336,2.8333,2.8392,2.8384,2.8387,2.8385,2.8426,2.8423,2.8557,2.8575,2.8454,2.8455,2.8456,0,2.8151,2.8183,2.8196,2.8214,2.8223,2.8253,2.827,2.8261,2.828,2.8301,2.8326,2.8357,2.8381,2.8435,2.8439,2.8468,2.846,2.8506,2.8465,2.8467,2.8462,2.8461,2.8464,2.8514,2.8515,2.8516,2.8517,0,2.8254,2.8251,2.8276,2.8301,2.8322,2.8342,2.8359,2.8376,2.8368,2.8391,2.8424,2.8443,2.848,2.8512,2.8539,2.8548,2.8532,2.853,2.8541,2.8545,2.8546,2.8547,2.841,2.8527,2.8526,2.8525,2.8525,2.8525,2.833,2.8357,2.8371,2.84,2.8413,2.843,2.8456,2.846,2.8487,2.8516,2.8509,2.8547,2.8563,2.8598,2.8609,2.8639,2.8623,2.8638,2.8643,2.8647,2.8652,2.8541,2.8644,2.8644,2.8643,2.8643,2.8643,0,2.8432,2.844,2.8467,2.8492,2.8516,2.8498,2.8517,2.8538,2.8571,2.8587,2.8611,2.865,2.868,2.8687,2.8717,2.874,2.8733,2.8748,2.8746,2.8749,2.8664,2.8652,2.8753,2.8753,2.8753,2.8753,2.8752,2.8752,2.8488,2.8535,2.8533,2.8586,2.8593,2.8629,2.8642,2.8658,2.8671,2.8715,2.874,2.8744,2.8757,2.8787,2.8815,2.8816,2.8828,2.8846,2.8845,2.8766,2.8755,2.8744,2.8733,2.8849,2.8849,2.8927,2.8928,2.8928]},{"header":{"parameterUnit":"m.s-1","parameterCategory":1,"la1":30.2991,"la2":30.254,"lo1":-89.0895,"lo2":-89.0444,"dy":0.0017,"dx":0.0017,"nx":28,"ny":28,"refTime":"2024-02-23T03:00:00:Z","depth":0,"parameterNumber":3,"parameterNumberName":"V-component_of_WINDS"},"data":[0,0,0,0,0,0,0,0,0,0,0,0,0,0,0,0,0,0,0,0,0,0,0,0,0,0,0,0,0,0,0,0,0,0,0,0,0,0,0,0,0,0,0,0,0,0,0,0,0,0,0,0,0,0,0,0,0,0,-2.4942,-2.4943,0,-2.497,-2.497,-2.4971,-2.4998,-2.4998,-2.4998,-2.4999,-2.5025,-2.5025,-2.5025,0,0,0,0,0,0,0,0,0,0,0,0,0,-2.491,-2.4911,-2.4942,-2.4943,-2.4943,-2.497,-2.497,-2.4971,-2.4998,-2.4998,-2.4999,-2.4999,-2.5024,-2.5025,-2.5025,0,0,0,0,0,0,0,0,0,0,0,0,0,-2.493,-2.4911,-2.4942,-2.496,-2.4962,-2.497,-2.497,-2.4971,-2.4998,-2.4998,-2.4999,-2.4999,-2.5024,-2.5025,-2.5025,-2.5018,0,0,-2.5027,-2.5027,0,0,0,0,0,0,0,0,-2.4928,-2.4931,-2.4957,-2.4959,-2.4961,-2.4981,-2.4968,-2.4986,-2.4997,-2.4984,-2.4999,-2.4999,-2.5009,-2.5011,-2.5015,-2.5019,-2.502,-2.5027,-2.5027,-2.5027,-2.5028,0,0,0,0,0,0,0,-2.4927,-2.493,-2.4953,-2.4957,-2.496,-2.4965,-2.4969,-2.4972,-2.4993,-2.4985,-2.4987,-2.499,-2.5011,-2.5015,-2.5016,-2.502,-2.5027,-2.5027,-2.5028,-2.5028,-2.5018,-2.5017,0,0,0,0,0,0,-2.4923,-2.4928,-2.4952,-2.4954,-2.4946,-2.4966,-2.4969,-2.4974,-2.4993,-2.4997,-2.499,-2.4991,-2.5013,-2.5015,-2.5017,-2.5008,-2.5027,-2.5028,-2.5028,-2.5018,-2.5018,-2.5017,0,0,0,0,0,0,-2.4923,-2.4925,-2.4951,-2.4942,-2.4946,-2.4966,-2.497,-2.4974,-2.4978,-2.4997,-2.5,-2.499,-2.5014,-2.5016,-2.5017,-2.5009,-2.5028,-2.5029,-2.5019,-2.5018,-2.5017,-2.4991,0,0,0,0,0,0,-2.4922,-2.4925,-2.4923,-2.4942,-2.4946,-2.4952,-2.497,-2.4974,-2.4979,-2.4982,-2.4998,-2.5001,-2.5014,-2.5016,-2.5018,-2.5011,-2.5029,-2.502,-2.5019,-2.5018,-2.4993,-2.499,-2.4987,0,0,0,0,0,-2.492,-2.4914,-2.4923,-2.4925,-2.4944,-2.4951,-2.4954,-2.497,-2.4979,-2.4976,-2.4988,-2.5001,-2.501,-2.5016,-2.5018,-2.5011,-2.502,-2.5019,-2.5018,-2.4994,-2.499,-2.4987,0,0,0,0,0,0,-2.4893,-2.4917,-2.4926,-2.4926,-2.4937,-2.4956,-2.4953,-2.4965,-2.4973,-2.4974,-2.4993,-2.4997,-2.4995,-2.5003,-2.5009,-2.5004,-2.5017,-2.5016,-2.4998,-2.4995,-2.4992,-2.4989,-2.5029,0,0,0,0,0,-2.4887,-2.4892,-2.4912,-2.491,-2.4915,-2.4933,-2.4937,-2.4948,-2.4959,-2.4964,-2.4976,-2.4985,-2.499,-2.4993,-2.4999,-2.4995,-2.4998,-2.499,-2.4987,-2.4985,-2.4983,-2.498,-2.4977,-2.5013,-2.5013,-2.5013,0,0,-2.4874,-2.4888,-2.489,-2.4905,-2.4914,-2.4917,-2.4936,-2.494,-2.4942,-2.4964,-2.4965,-2.4975,-2.4986,-2.4984,-2.4984,-2.4991,-2.4974,-2.4983,-2.4981,-2.4981,-2.4979,-2.4975,-2.4972,-2.5012,-2.5012,-2.5012,0,0,-2.4853,-2.4865,-2.4863,-2.4873,-2.4887,-2.4899,-2.4899,-2.4916,-2.4923,-2.4925,-2.4942,-2.4945,-2.4953,-2.4961,-2.4966,-2.4947,-2.4958,-2.4948,-2.4932,-2.4929,-2.4926,-2.4924,-2.4916,-2.4913,-2.4947,-2.4947,-2.4947,0,-2.4835,-2.4842,-2.4861,-2.4863,-2.4869,-2.489,-2.4888,-2.4896,-2.4911,-2.4913,-2.4922,-2.4933,-2.4942,-2.4941,-2.4937,-2.4941,-2.494,-2.4946,-2.4925,-2.4923,-2.4921,-2.4913,-2.4911,-2.4946,-2.4946,-2.4946,-2.4946,0,-2.4819,-2.4824,-2.4821,-2.4835,-2.4841,-2.4841,-2.4859,-2.4862,-2.4873,-2.4884,-2.4885,-2.4897,-2.4906,-2.4907,-2.4917,-2.4907,-2.4911,-2.4922,-2.4935,-2.4916,-2.4909,-2.4906,-2.4944,-2.4944,-2.4945,-2.4945,0,0,-2.4781,-2.4806,-2.4804,-2.4811,-2.4828,-2.4831,-2.4832,-2.4841,-2.4842,-2.4852,-2.4852,-2.4859,-2.4869,-2.4875,-2.4887,-2.4884,-2.4867,-2.4895,-2.4896,-2.4888,-2.4855,-2.4846,-2.4842,-2.4875,-2.4875,-2.4875,-2.4853,0,-2.4761,-2.4765,-2.4781,-2.4779,-2.4783,-2.4803,-2.4803,-2.4813,-2.4824,-2.4827,-2.4839,-2.4843,-2.4856,-2.486,-2.4858,-2.4869,-2.486,-2.4871,-2.4874,-2.4874,-2.4869,-2.4839,-2.4829,-2.4809,-2.4851,-2.4851,-2.485,0,-2.4739,-2.4748,-2.4746,-2.4763,-2.4765,-2.4765,-2.4774,-2.4778,-2.4789,-2.4797,-2.4803,-2.4817,-2.4817,-2.4831,-2.4831,-2.4838,-2.4841,-2.4846,-2.4846,-2.4846,-2.486,-2.4836,-2.4803,-2.4799,-2.4847,-2.4847,-2.4847,0,-2.4709,-2.4721,-2.4721,-2.4726,-2.4746,-2.4745,-2.4753,-2.4766,-2.477,-2.4777,-2.478,-2.4787,-2.4791,-2.4796,-2.4811,-2.4819,-2.4809,-2.4824,-2.4814,-2.4814,-2.481,-2.481,-2.4775,-2.4814,-2.4814,-2.4814,-2.4814,0,-2.4685,-2.4683,-2.4708,-2.4708,-2.4706,-2.4725,-2.4722,-2.4732,-2.4742,-2.4744,-2.4762,-2.4762,-2.4783,-2.4785,-2.4797,-2.4795,-2.4796,-2.4802,-2.4804,-2.4799,-2.4798,-2.48,-2.4801,-2.4813,-2.4813,-2.4813,-2.4813,0,-2.4651,-2.4668,-2.4669,-2.4688,-2.4693,-2.469,-2.4706,-2.4706,-2.4718,-2.4719,-2.4721,-2.4738,-2.4742,-2.4758,-2.4766,-2.4774,-2.4767,-2.4774,-2.4763,-2.4765,-2.4753,-2.4754,-2.4717,-2.4713,-2.4756,-2.4755,-2.4755,0,-2.4634,-2.4633,-2.4651,-2.4654,-2.4662,-2.4666,-2.467,-2.4689,-2.4692,-2.4705,-2.4703,-2.4709,-2.4714,-2.472,-2.4733,-2.4738,-2.4744,-2.4731,-2.4745,-2.474,-2.4742,-2.4742,-2.4741,-2.4727,-2.4727,-2.4726,-2.4726,0,-2.4601,-2.4609,-2.4615,-2.4624,-2.4629,-2.4636,-2.4645,-2.4645,-2.4666,-2.4669,-2.4674,-2.4678,-2.4686,-2.4691,-2.4699,-2.4706,-2.4719,-2.4722,-2.472,-2.4713,-2.4707,-2.4709,-2.4753,-2.4722,-2.4723,-2.4723,-2.4723,-2.4723,-2.4574,-2.4573,-2.4586,-2.4592,-2.4601,-2.4608,-2.4609,-2.4621,-2.4625,-2.4634,-2.4645,-2.4648,-2.4658,-2.467,-2.4677,-2.4679,-2.4686,-2.4683,-2.4682,-2.468,-2.4677,-2.4708,-2.468,-2.4681,-2.4681,-2.4681,-2.4681,0,-2.454,-2.455,-2.4555,-2.4567,-2.4571,-2.4584,-2.4594,-2.4596,-2.4599,-2.4608,-2.4613,-2.4618,-2.4623,-2.4637,-2.4643,-2.4641,-2.4647,-2.4642,-2.4642,-2.4643,-2.4671,-2.4672,-2.4637,-2.4637,-2.4637,-2.4637,-2.4637,-2.4637,-2.4524,-2.4523,-2.4533,-2.4536,-2.4546,-2.4549,-2.4554,-2.456,-2.4568,-2.4573,-2.4577,-2.4586,-2.4597,-2.4604,-2.4608,-2.4612,-2.4613,-2.4605,-2.4611,-2.4637,-2.4641,-2.4645,-2.4646,-2.4606,-2.4606,-2.4582,-2.4582,-2.4582]}]]